This is the latest recevied weather packets stored in our database for station/object N4QB-13. If no packets are shown the sender has not sent any weather packets the latest 10 day(s).
| Time | Temp. | Humidity | Pressure | Rain* | Wind** | Luminosity | Snow |
|---|---|---|---|---|---|---|---|
| 1777405448 | 28.89° C | 48% | 1017.1 hPa | 0 mm | - | 290 W/m² | - |
| 1777405145 | 29.44° C | 47% | 1017 hPa | 0 mm | - | 403 W/m² | - |
| 1777404843 | 28.89° C | 48% | 1017.1 hPa | 0 mm | - | 522 W/m² | - |
| 1777404540 | 29.44° C | 47% | 1017.5 hPa | 0 mm | - | 543 W/m² | - |
| 1777404236 | 28.89° C | 48% | 1017.3 hPa | 0 mm | - | 609 W/m² | - |
| 1777403933 | 28.89° C | 48% | 1017.4 hPa | 0 mm | - | 609 W/m² | - |
| 1777403632 | 30° C | 47% | 1017.6 hPa | 0 mm | - | 614 W/m² | - |
| 1777403326 | 29.44° C | 48% | 1017.7 hPa | 0 mm | - | 615 W/m² | - |
| 1777403021 | 28.89° C | 49% | 1018.1 hPa | 0 mm | - | 621 W/m² | - |
| 1777402717 | 28.33° C | 50% | 1018.1 hPa | 0 mm | - | 625 W/m² | - |
| 1777402412 | 28.33° C | 50% | 1018 hPa | 0 mm | - | 545 W/m² | - |
| 1777402110 | 28.89° C | 50% | 1018.1 hPa | 0 mm | - | 589 W/m² | - |
| 1777401806 | 28.33° C | 50% | 1018.3 hPa | 0 mm | - | 608 W/m² | - |
| 1777401505 | 28.33° C | 50% | 1018.3 hPa | 0 mm | - | 603 W/m² | - |
| 1777401201 | 28.33° C | 49% | 1018.5 hPa | 0 mm | - | 633 W/m² | - |
| 1777400897 | 28.89° C | 50% | 1018.7 hPa | 0 mm | - | 640 W/m² | - |
| 1777400593 | 28.33° C | 52% | 1018.5 hPa | 0 mm | - | 647 W/m² | - |
| 1777400291 | 28.33° C | 54% | 1018.6 hPa | 0 mm | - | 646 W/m² | - |
| 1777399986 | 28.33° C | 54% | 1018.8 hPa | 0 mm | - | 646 W/m² | - |
| 1777399683 | 27.78° C | 55% | 1019 hPa | 0 mm | - | 648 W/m² | - |
| 1777399380 | 28.33° C | 55% | 1018.9 hPa | 0 mm | - | 656 W/m² | - |
| 1777399078 | 28.33° C | 56% | 1018.8 hPa | 0 mm | - | 651 W/m² | - |
| 1777398775 | 27.78° C | 57% | 1018.9 hPa | 0 mm | - | 653 W/m² | - |
| 1777398472 | 27.78° C | 56% | 1018.9 hPa | 0 mm | - | 630 W/m² | - |
| 1777398168 | 27.78° C | 56% | 1019.2 hPa | 0 mm | - | 87 W/m² | - |
* Rain latest hour (hover to see other rain measurements)
** Current wind speed in m/s (hover to see current wind gust speed)